Change the Weather History Date:

Sunday, December 29, 2013

  Actual Average Record
Temperature  
Mean Temperature 64 °F 50 °F  
Max Temperature 75 °F 60 °F 81 °F (1984)
Min Temperature 52 °F 39 °F 12 °F (1894)
Degree Days  
Heating Degree Days 1 16  
Month to date heating degree days 246 391  
Since 1 July heating degree days 502 658  
Cooling Degree Days 0 0  
Month to date cooling degree days 38 3  
Year to date cooling degree days 2491 2452  
Growing Degree Days 14 (Base 50)    
Moisture  
Dew Point 59 °F    
Average Humidity 75    
Maximum Humidity 93    
Minimum Humidity 57    
Precipitation  
Precipitation 0.80 in 0.10 in 1.42 in (1882)
Month to date precipitation 2.38 2.75  
Year to date precipitation 54.07 47.76  
Sea Level Pressure  
Sea Level Pressure 29.92 in    
Wind  
Wind Speed 12 mph (SW)    
Max Wind Speed 23 mph    
Max Gust Speed 31 mph    
Visibility 8 miles    
Events Rain    
T = Trace of Precipitation, MM = Missing Value Source: NWS Daily Summary

Daily Weather History Graph

Daily Weather History Graph

Search for Another Location

Airport or City:

Trip Planner

Search our weather history database for the weather conditions in past years. The results will help you decide how hot, cold, wet, or windy it might be!

Date:

Astronomy

Dec. 29, 2013 Rise Set
Actual Time 7:24 AM EST 5:29 PM EST
Civil Twilight 6:57 AM EST 5:56 PM EST
Nautical Twilight 6:27 AM EST 6:26 PM EST
Astronomical Twilight 5:57 AM EST 6:56 PM EST
Moon 4:11 AM EST 3:02 PM EST
Length of Visible Light 10h 58m
Length of Day
10h 04m
Waning Crescent, 11% of the Moon is Illuminated
Dec 29
Waning Crescent
Jan 1
New
Jan 7
First Quarter
Jan 15
Full
Jan 24
Last Quarter

Hourly Weather History & Observations

Time (EST) Temp. Dew Point Humidity Pressure Visibility Wind Dir Wind Speed Gust Speed Precip Events Conditions
12:00 AM 55.4 °F 53.6 °F 94% 30.03 in 7.0 mi Calm Calm - N/A   Overcast
12:53 AM 55.9 °F 54.0 °F 93% 30.02 in 7.0 mi Calm Calm - N/A   Mostly Cloudy
1:01 AM 55.4 °F 53.6 °F 94% 30.01 in 7.0 mi East 3.5 mph - N/A   Mostly Cloudy
1:53 AM 57.0 °F 55.0 °F 93% 29.97 in 5.0 mi ESE 5.8 mph - N/A   Scattered Clouds
2:53 AM 60.1 °F 57.9 °F 93% 29.94 in 8.0 mi SE 6.9 mph - N/A   Mostly Cloudy
3:53 AM 69.1 °F 64.9 °F 87% 29.91 in 10.0 mi South 19.6 mph 26.5 mph 0.01 in   Overcast
4:53 AM 69.1 °F 64.9 °F 87% 29.89 in 7.0 mi South 18.4 mph 26.5 mph 0.04 in Rain Rain
5:45 AM 68.0 °F 64.4 °F 88% 29.87 in 6.0 mi South 13.8 mph 23.0 mph 0.06 in Rain Rain
5:53 AM 68.0 °F 64.9 °F 90% 29.87 in 6.0 mi South 18.4 mph 23.0 mph 0.09 in Rain Light Rain
6:00 AM 68.0 °F 64.4 °F 88% 29.87 in 7.0 mi South 20.7 mph 31.1 mph 0.01 in Rain Rain
6:40 AM 69.8 °F 66.2 °F 88% 29.87 in 2.0 mi South 20.7 mph 27.6 mph 0.07 in Rain Heavy Rain
6:50 AM 69.8 °F 66.2 °F 88% 29.87 in 5.0 mi South 18.4 mph 27.6 mph 0.20 in Rain Light Rain
6:53 AM 69.1 °F 66.0 °F 90% 29.87 in 5.0 mi South 18.4 mph 25.3 mph 0.21 in Rain Rain
7:34 AM 69.8 °F 66.2 °F 88% 29.89 in 1.5 mi SSW 17.3 mph 24.2 mph 0.30 in Rain Heavy Rain
7:49 AM 69.8 °F 64.4 °F 83% 29.89 in 5.0 mi SSW 19.6 mph 26.5 mph 0.41 in Rain Rain
7:53 AM 70.0 °F 64.9 °F 84% 29.90 in 5.0 mi SSW 18.4 mph 27.6 mph 0.41 in Rain Light Rain
8:10 AM 69.8 °F 64.4 °F 83% 29.89 in 10.0 mi South 16.1 mph - 0.03 in Rain Light Rain
8:53 AM 68.0 °F 64.0 °F 87% 29.91 in 10.0 mi SSW 10.4 mph - 0.04 in   Overcast
9:53 AM 69.1 °F 66.0 °F 90% 29.90 in 10.0 mi SW 10.4 mph - N/A   Overcast
10:48 AM 71.6 °F 66.2 °F 83% 29.91 in 10.0 mi SW 11.5 mph - 0.00 in   Overcast
10:53 AM 70.0 °F 66.0 °F 87% 29.91 in 10.0 mi SW 13.8 mph - 0.00 in   Overcast
11:53 AM 72.0 °F 66.0 °F 81% 29.91 in 10.0 mi WSW 11.5 mph - 0.00 in   Overcast
12:20 PM 71.6 °F 66.2 °F 83% 29.89 in 10.0 mi WSW 11.5 mph - N/A   Mostly Cloudy
12:53 PM 73.0 °F 63.0 °F 71% 29.87 in 10.0 mi West 16.1 mph - N/A   Mostly Cloudy
1:53 PM 73.9 °F 57.9 °F 57% 29.87 in 10.0 mi WNW 18.4 mph 23.0 mph N/A   Scattered Clouds
2:53 PM 72.0 °F 55.0 °F 55% 29.87 in 10.0 mi WNW 16.1 mph - N/A   Scattered Clouds
3:53 PM 69.1 °F 53.1 °F 57% 29.88 in 10.0 mi West 16.1 mph - N/A   Scattered Clouds
4:53 PM 66.9 °F 54.0 °F 63% 29.90 in 10.0 mi West 8.1 mph - N/A   Scattered Clouds
5:53 PM 62.1 °F 53.1 °F 72% 29.92 in 10.0 mi West 6.9 mph - N/A   Scattered Clouds
6:53 PM 60.1 °F 53.1 °F 78% 29.94 in 10.0 mi WNW 6.9 mph - N/A   Scattered Clouds
7:53 PM 59.0 °F 51.1 °F 75% 29.96 in 10.0 mi WNW 8.1 mph - N/A   Scattered Clouds
8:53 PM 55.9 °F 50.0 °F 80% 29.98 in 10.0 mi WNW 5.8 mph - N/A   Clear
9:53 PM 55.0 °F 48.9 °F 80% 30.00 in 10.0 mi WNW 12.7 mph - N/A   Clear
10:53 PM 53.1 °F 46.9 °F 80% 30.02 in 10.0 mi WNW 8.1 mph - N/A   Partly Cloudy
11:53 PM 53.1 °F 46.9 °F 80% 30.02 in 10.0 mi WNW 8.1 mph - N/A   Partly Cloudy